Regional Weather Roundup
Issued by NWS

Home | Current Version | Previous Version | Graphics & Text | Print | Product List | Glossary On
Versions: 1 2 3 4 5 6 7 8 9 10 11 12 13 14 15 16 17 18 19 20 21 22 23 24 25 26 27 28 29 30 31 32 33 34 35 36 37 38 39 40 41 42 43 44 45 46 47 48 49 50
000
ASUS43 KDTX 031801
RWRMI
MICHIGAN HOURLY REGIONAL WEATHER ROUNDUP
NATIONAL WEATHER SERVICE DETROIT/PONTIAC MI
200 PM EDT WED JUN 03 2015

NOTE: "FAIR" INDICATES FEW OR NO CLOUDS BELOW 12,000 FEET WITH NO
SIGNIFICANT WEATHER AND/OR OBSTRUCTION TO VISIBILITY.

MIZ047>049-052>055-059>063-066>070-074>076-081>083-031900-
SOUTHEAST LOWER MICHIGAN

CITY           SKY/WX    TMP DP  RH WIND       PRES   REMARKS
ADRIAN         SUNNY     71  50  47 SE9       30.11F
6HR MIN TEMP:  55; 6HR MAX TEMP:  71;

ALMA           SUNNY     72  50  46 SW6       30.10S
ANN ARBOR      MOSUNNY   70  54  56 VRB3      30.11S
BAD AXE        SUNNY     70  47  43 S10       30.12F
CARO           SUNNY     72  54  52 S6        30.10F
DETROIT CITY   SUNNY     70  54  56 E14       30.12F
6HR MIN TEMP:  58; 6HR MAX TEMP:  70;

DETROIT        MOSUNNY   71  50  47 E9        30.12S
6HR MIN TEMP:  57; 6HR MAX TEMP:  72;

FLINT          MOSUNNY   74  54  49 S10       30.10F
6HR MIN TEMP:  56; 6HR MAX TEMP:  75;

GROSSE ILE     SUNNY     66  57  72 S8        30.10S
HILLSDALE      CLOUDY    69  55  62 S6        30.11F
6HR MIN TEMP:  56; 6HR MAX TEMP:  70;

HOWELL         PTSUNNY   70  53  53 SE5       30.11F

CITY           SKY/WX    TMP DP  RH WIND       PRES   REMARKS
JACKSON        CLOUDY    69  54  58 SE8       30.10F
6HR MIN TEMP:  55; 6HR MAX TEMP:  71;

LAMBERTVILLE   SUNNY     70  50  49 E9        30.11S
LANSING        SUNNY     72  53  51 SE10      30.09F
6HR MIN TEMP:  53; 6HR MAX TEMP:  72;

LAPEER         FAIR      70  51  51 SE9       30.12F
MASON          PTSUNNY   69  54  60 S7        30.10F
MONROE         SUNNY     68  52  56 SE12      30.10F
MT. CLEMENS    MOSUNNY   69  54  58 SE7       30.11F
6HR MIN TEMP:  54; 6HR MAX TEMP:  69;

PONTIAC        PTSUNNY   71  51  49 SE8       30.11S
6HR MIN TEMP:  55; 6HR MAX TEMP:  71;

PORT HOPE        N/A     62  53  72 E20       30.12F
6HR MIN TEMP:  56; 6HR MAX TEMP:  63;

PORT HURON     SUNNY     70  48  46 SE9       30.14S
TRI CITIES     SUNNY     73  48  41 S8        30.10F
6HR MIN TEMP:  57; 6HR MAX TEMP:  74;

MIDLAND        FAIR      72  45  38 E3        30.09F
TROY           SUNNY     73  48  41 SE6       30.13S
SAGINAW HB     SUNNY     72  48  43 S6        30.09F
$$
MIZ043>046-050>051-056>058-064>065-071>073-077>080-031900-
SOUTHWEST LOWER MICHIGAN

CITY           SKY/WX    TMP DP  RH WIND       PRES   REMARKS
BATTLE CREEK   MOSUNNY   71  54  54 SE8       30.09F
6HR MIN TEMP:  55; 6HR MAX TEMP:  71;

BENTON HARBOR  SUNNY     69  54  58 VRB5      30.06F
6HR MIN TEMP:  52; 6HR MAX TEMP:  71;

BIG RAPIDS     SUNNY     72  44  37 S6        30.07F
6HR MIN TEMP:  51; 6HR MAX TEMP:  72;

COLDWATER      CLOUDY    68  55  62 S6        30.10F
6HR MIN TEMP:  54; 6HR MAX TEMP:  69;

FREMONT        FAIR      72  46  39 S8        30.06F
HOLLAND        MOSUNNY   72  54  53 W8        30.07F
6HR MIN TEMP:  55; 6HR MAX TEMP:  72;

GRAND RAPIDS   PTSUNNY   72  52  49 VRB6      30.07F
6HR MIN TEMP:  54; 6HR MAX TEMP:  73;

IONIA          FAIR      73  51  45 S8G17     30.08F
KALAMAZOO      PTSUNNY   72  57  59 S8G20     30.09F
6HR MIN TEMP:  54; 6HR MAX TEMP:  72;

LUDINGTON      SUNNY     64  51  61 SW9       30.07S
MARSHALL       CLOUDY    71  53  53 SE7       30.09F
MOUNT PLEASANT SUNNY     72  49  44 SE5       30.09F
6HR MIN TEMP:  50; 6HR MAX TEMP:  72;

MUSKEGON       PTSUNNY   71  49  45 SW10      30.06F
6HR MIN TEMP:  56; 6HR MAX TEMP:  71;

SOUTH HAVEN    MOSUNNY   69  49  50 NW9       30.06F
$$
MIZ016>042-031900-
NORTHERN LOWER MICHIGAN

CITY           SKY/WX    TMP DP  RH WIND       PRES   REMARKS
ALPENA         SUNNY     71  46  40 E14       30.12F
6HR MIN TEMP:  53; 6HR MAX TEMP:  73;

BEAVER ISLAND  SUNNY     70  47  43 S9        30.06F
6HR MIN TEMP:  55; 6HR MAX TEMP:  71;

BELLAIRE       SUNNY     74  41  29 S5        30.06F
6HR MIN TEMP:  58; 6HR MAX TEMP:  76;

CADILLAC       SUNNY     71  43  36 SE9       30.08F
CHARLEVOIX     SUNNY     74  47  38 SE5       30.08F
FRANKFORT      SUNNY     65  42  42 W8        30.07S
GAYLORD        SUNNY     72  41  32 S8        30.09F
6HR MIN TEMP:  56; 6HR MAX TEMP:  72;

GRAYLING       SUNNY     73  40  31 E9        30.10F
HARBOR SPRINGS SUNNY     73  47  39 SW5       30.07F
HOUGHTON LAKE  SUNNY     72  39  30 S10       30.10F
6HR MIN TEMP:  56; 6HR MAX TEMP:  72;

MANISTEE       SUNNY     68  46  45 W9        30.06F
OSCODA         SUNNY     66  48  52 E8        30.13F
PELLSTON       SUNNY     74  47  38 SE7       30.07F
6HR MIN TEMP:  53; 6HR MAX TEMP:  75;

ROGERS CITY    SUNNY     73  49  42 S10G17    30.10F
TRAVERSE CITY  MOSUNNY   76  43  30 S8        30.05F
6HR MIN TEMP:  58; 6HR MAX TEMP:  76;

$$
MIZ007>008-015-031900-
EASTERN UPPER MICHIGAN

CITY           SKY/WX    TMP DP  RH WIND       PRES   REMARKS
KINROSS        FAIR      70  48  46 S15       30.07F
6HR MIN TEMP:  52; 6HR MAX TEMP:  72;

MACKINAC ISLAN MOSUNNY   62  49  62 E6        30.08F
6HR MIN TEMP:  54; 6HR MAX TEMP:  68;

NEWBERRY       FAIR      67  49  52 SW13G22   30.05F
6HR MIN TEMP:  53; 6HR MAX TEMP:  67;

S. S. MARIE    FAIR      71  48  43 S10       30.06F
6HR MIN TEMP:  49; 6HR MAX TEMP:  71;

$$
MIZ004>006-011>014-085-031900-
CENTRAL UPPER MICHIGAN

CITY           SKY/WX    TMP DP  RH WIND       PRES   REMARKS
MANISTIQUE     FAIR      56  45  67 S9        30.06F
6HR MIN TEMP:  51; 6HR MAX TEMP:  57;

ESCANABA       SUNNY     64  50  59 S10G16    30.02S
6HR MIN TEMP:  54; 6HR MAX TEMP:  64;

MENOMINEE      SUNNY     70  54  56 SE14      30.00F
6HR MIN TEMP:  55; 6HR MAX TEMP:  70;

SAWYER-GWINN   SUNNY     73  46  38 S21G26    29.97F
$$
MIZ001>003-009>011-084-031900-
WESTERN UPPER MICHIGAN

CITY           SKY/WX    TMP DP  RH WIND       PRES   REMARKS
IRON MOUNTAIN  SUNNY     75  51  43 S16G26    29.97F
6HR MIN TEMP:  50; 6HR MAX TEMP:  75;

HOUGHTON       CLOUDY    71  53  52 VRB3      29.92F
6HR MIN TEMP:  57; 6HR MAX TEMP:  71; 6HR PCP: TRACE;

COPPER HARBOR    N/A     58  44  60 CALM      29.94S
6HR MIN TEMP:  51; 6HR MAX TEMP:  66;

IRONWOOD       CLOUDY    70  55  60 S9        29.88S
6HR MIN TEMP:  55; 6HR MAX TEMP:  70;

$$

ABBREVIATIONS USED IN REMARKS
   TC - TEMPERATURE IN CELSIUS
  WCI - WIND CHILL INDEX
   HX - HEAT INDEX
  VSB - VISIBILITY



USA.gov is the U.S. government's official web portal to all federal, state and local government web resources and services.